Miscellaneous Local Product
Issued by NWS Hastings, NE

Home | Current Version | Previous Version | Text Only | Print | Product List | Glossary On
Versions: 1 2 3 4 5 6 7 8 9 10 11 12 13 14 15 16 17 18 19 20 21 22 23 24 25 26 27 28 29 30 31 32 33 34 35 36 37 38 39 40 41 42 43 44 45 46 47 48 49 50
000
AXUS43 KGID 180802
MISGRI

GID CWA HOURLY WEATHER ROUNDUP
NATIONAL WEATHER SERVICE HASTINGS NE
300 AM CDT THU SEP 18 2014

NOTE: "FAIR" INDICATES FEW OR NO CLOUDS BELOW 12,000 FEET WITH NO
SIGNIFICANT WEATHER AND/OR OBSTRUCTIONS TO VISIBILITY.

...SOUTH CENTRAL NEBRASKA...

CITY           SKY/WX    TMP DP  RH WIND       PRES   REMARKS
GRAND ISLAND   CLEAR     56  55  97 E6        29.97S FOG
HASTINGS       CLEAR     63  59  87 SE9       29.96S
KEARNEY        MOCLDY    55  55 100 E5        29.97S VSB 1/2
ORD            FOG       55  55 100 CALM      29.97R VSB 3/4
YORK           PTCLDY    59  59 100 SE6       29.97S
AURORA         FOG       56  56 100 CALM      29.98R VSB 1/2
LEXINGTON        N/A     58  56  95 CALM      29.98R FOG
HOLDREGE       MOCLDY    58  57  95 CALM      29.97R FOG
HEBRON         FOG       56  55  94 CALM      29.96S VSB 1/4

...NEBRASKA PANHANDLE...

CITY           SKY/WX    TMP DP  RH WIND       PRES   REMARKS
CHADRON        CLEAR     52  50  93 SW6       29.92F
ALLIANCE       CLEAR     60  57  89 S8        29.97S
SCOTTSBLUFF    CLEAR     55  54  96 CALM      29.98S
SIDNEY         CLEAR     56  54  93 S7        30.01F

...WESTERN AND NORTH CENTRAL NEBRASKA...

CITY           SKY/WX    TMP DP  RH WIND       PRES   REMARKS
VALENTINE      CLEAR     61  55  81 SE13      29.96F
AINSWORTH      PTCLDY    56  55  95 SE7       29.97F
ONEILL         MOCLDY    62  58  87 SE3       29.97F
BROKEN BOW     FOG       57  55  93 E3        29.98R VSB 1/4
IMPERIAL       CLEAR     64  62  93 S9        29.98R
NORTH PLATTE   PTCLDY    57  56  96 E7        29.97S FOG
MCCOOK         MOCLDY    62  61  96 NE6       29.96S FOG

...EASTERN NEBRASKA...

CITY           SKY/WX    TMP DP  RH WIND       PRES   REMARKS
NORFOLK        CLEAR     57  56  96 SE5       29.97S
SO SIOUX CITY  PTCLDY    59  56  89 SE6       29.98S
TEKAMAH        CLEAR     56  54  93 CALM      29.98S
ALBION         CLEAR     56  54  91 CALM      29.98R
OMAHA EPPLEY   CLEAR     63  58  83 SE9       29.97F
OFFUTT AFB     CLEAR     60  60 100 E6        29.97F
MILLARD        PTCLDY    64  60  87 CALM      29.98S
LINCOLN        PTCLDY    66  60  81 E8        29.97R
NEBRASKA CITY  PTCLDY    63  60  92 SE7       29.96F
BEATRICE       CLEAR     60  60  98 CALM      29.96R FOG
FALLS CITY     MOCLDY    62  61  96 NE7       29.95S FOG

...NORTHERN KANSAS...

CITY           SKY/WX    TMP DP  RH WIND       PRES   REMARKS
GOODLAND       CLOUDY    61  60  97 N5        29.98R
HILL CITY      MOCLDY    66  64  93 NE6       29.93S FOG
NORTON         CLOUDY    63  61  94 E8        29.93S FOG
PHILLIPSBURG   CLEAR     64  64 100 NE5       29.93S FOG
SMITH CENTER   MOCLDY    63  63 100 E8        29.93R FOG
BELOIT         PTCLDY    64  57  77 E3        29.90R
HAYS           CLOUDY    68  63  83 E12       29.90R
RUSSELL        CLOUDY    68  66  93 E10       29.88S FOG
CONCORDIA      MOCLDY    63  63 100 E10       29.91F FOG
SALINA         TSTM      64  60  87 E17G28    29.90S VSB 1
TOPEKA         CLOUDY    66  66 100 NE8       29.93F FOG



USA.gov is the U.S. government's official web portal to all federal, state and local government web resources and services.